Anchorage Merrill, AK

6:10 PM AKDT on August 21, 2017 (GMT -0800)
Merrill

Weather History for PAMR - February, 2012

Change the Weather History Date:

Wednesday, February 22, 2012

  Actual Average Record
Temperature  
Mean Temperature 32 °F -  
Max Temperature 35 °F 29 °F 45 °F (2016)
Min Temperature 28 °F 17 °F 12 °F (2017)
Degree Days  
Heating Degree Days 34    
Moisture  
Dew Point 21 °F    
Average Humidity 67    
Maximum Humidity 81    
Minimum Humidity 56    
Precipitation  
Precipitation 0.00 in - - ()
Snow  
Snow 0.00 in - - ()
Snow Depth 22.00 in    
Sea Level Pressure  
Sea Level Pressure 29.80 in    
Wind  
Wind Speed 7 mph (South)    
Max Wind Speed 10 mph    
Max Gust Speed 18 mph    
Visibility 9 miles    
Events Snow    
Averages and records for this station are not official NWS values.
T = Trace of Precipitation, MM = Missing Value Source: NWS Daily Summary

Daily Weather History Graph

Daily Weather History Graph

Search for Another Location

Airport or City:

Trip Planner

Search our weather history database for the weather conditions in past years. The results will help you decide how hot, cold, wet, or windy it might be!

Date:

Astronomy

Feb. 22, 2012 Rise Set
Actual Time 8:22 AM AKST 6:04 PM AKST
Civil Twilight 7:37 AM AKST 6:49 PM AKST
Nautical Twilight 6:47 AM AKST 7:39 PM AKST
Astronomical Twilight 5:57 AM AKST 8:29 PM AKST
Moon 7:55 AM AKST 7:59 PM AKST
Length of Visible Light 11h 11m
Length of Day
9h 42m
New Moon, 1% of the Moon is Illuminated
Feb 22
New Moon
Feb 29
First Quarter
Mar 8
Full
Mar 14
Last Quarter
Mar 22
New

Hourly Weather History & Observations

Time (AKST) Temp. Windchill Dew Point Humidity Pressure Visibility Wind Dir Wind Speed Gust Speed Precip Events Conditions
12:53 AM 32.0 °F 24.2 °F 18.0 °F 56% 29.54 in 10.0 mi South 9.2 mph - N/A   Scattered Clouds
1:53 AM 32.0 °F 23.6 °F 19.0 °F 59% 29.57 in 10.0 mi South 10.4 mph 18.4 mph N/A   Scattered Clouds
2:53 AM 30.9 °F 23.5 °F 19.0 °F 61% 29.59 in 10.0 mi South 8.1 mph - N/A   Mostly Cloudy
3:53 AM 30.9 °F 23.5 °F 18.0 °F 59% 29.62 in 10.0 mi South 8.1 mph - N/A   Mostly Cloudy
4:53 AM 30.0 °F 24.1 °F 18.0 °F 61% 29.64 in 10.0 mi South 5.8 mph - N/A   Scattered Clouds
5:53 AM 30.0 °F 22.4 °F 19.0 °F 64% 29.66 in 10.0 mi South 8.1 mph - N/A   Scattered Clouds
6:53 AM 30.0 °F 24.1 °F 19.9 °F 66% 29.68 in 10.0 mi South 5.8 mph - N/A   Mostly Cloudy
7:53 AM 30.9 °F 27.5 °F 21.0 °F 67% 29.70 in 10.0 mi South 3.5 mph - N/A   Overcast
8:53 AM 30.9 °F 27.5 °F 19.9 °F 64% 29.72 in 10.0 mi South 3.5 mph - N/A   Mostly Cloudy
9:53 AM 32.0 °F 26.4 °F 19.9 °F 61% 29.75 in 10.0 mi South 5.8 mph - N/A   Mostly Cloudy
10:53 AM 32.0 °F 24.8 °F 19.9 °F 61% 29.78 in 10.0 mi South 8.1 mph - N/A   Scattered Clouds
11:53 AM 33.1 °F 24.9 °F 21.0 °F 61% 29.81 in 10.0 mi South 10.4 mph - N/A   Scattered Clouds
12:53 PM 33.1 °F 28.7 °F 21.0 °F 61% 29.83 in 10.0 mi South 4.6 mph - N/A   Scattered Clouds
1:53 PM 35.1 °F 31.0 °F 21.0 °F 57% 29.84 in 10.0 mi South 4.6 mph - N/A   Mostly Cloudy
2:53 PM 35.1 °F 30.1 °F 21.0 °F 57% 29.85 in 10.0 mi South 5.8 mph - N/A   Mostly Cloudy
3:53 PM 33.1 °F 27.7 °F 24.1 °F 70% 29.87 in 6.0 mi SSE 5.8 mph - 0.00 in Snow Light Snow
4:16 PM 32.0 °F 28.7 °F 26.6 °F 80% 29.87 in 2.5 mi SSE 3.5 mph - 0.00 in Snow Light Snow
4:18 PM 32.0 °F 28.7 °F 26.6 °F 80% 29.87 in 3.0 mi South 3.5 mph - 0.00 in Snow Light Snow
4:53 PM 33.1 °F 27.7 °F 24.1 °F 70% 29.88 in 10.0 mi South 5.8 mph - 0.00 in   Overcast
5:53 PM 32.0 °F - 24.1 °F 73% 29.91 in 10.0 mi Calm Calm - N/A   Overcast
6:53 PM 30.9 °F - 24.1 °F 76% 29.93 in 10.0 mi Calm Calm - N/A   Overcast
7:53 PM 28.0 °F - 23.0 °F 81% 29.94 in 10.0 mi Calm Calm - N/A   Mostly Cloudy
8:53 PM 30.0 °F - 23.0 °F 75% 29.96 in 10.0 mi Calm Calm - N/A   Mostly Cloudy
9:53 PM 30.9 °F 24.3 °F 21.0 °F 67% 29.99 in 10.0 mi South 6.9 mph - N/A   Mostly Cloudy
10:53 PM 30.0 °F 26.5 °F 21.9 °F 72% 30.00 in 9.0 mi SSE 3.5 mph - 0.00 in Snow Light Snow
11:53 PM 30.0 °F 21.7 °F 23.0 °F 75% 30.03 in 5.0 mi South 9.2 mph - 0.00 in Snow Light Snow